Flag for United Kingdom Weather past 2 weeks in Newtown, Wales, United Kingdom

Now
46 °F

Cool.


Feels Like: 44 °F
Forecast: 42 / 61 °F
Wind: 5 mph from Northwest

Location: Lake Vyrnwy

Current Time: Sep 22, 2014 at 1:22:26 AM

Latest Report: Sep 22, 2014 at 12:00 AM


Visibility: 15 mi

Pressure: 30.37 "Hg

Humidity: 91%

Dew point: 44 °F

Location of NewtownLocation

Historic Weather in Newtown — Graph

°F

Newtown temperature yesterday

Maximum temperature yesterday: 60 °F (at 3:00 PM)
Minimum temperature yesterday: 44 °F (at 7:00 AM)
Average temperature yesterday: 53 °F

Past Weeks' High & Low Weather Summary

 TemperatureHumidityPressure
High66 °F (Sep 10, 2:00 PM)100% (Sep 9, 6:00 AM)30.37 "Hg (Sep 9, 6:00 AM)
Low44 °F (Sep 9, 7:00 AM)50% (Sep 9, 6:00 PM)29.82 "Hg (Sep 18, 4:00 PM)
Average55 °F88%30.11 "Hg
* Reported Midnight between Sep 6 and Sep 7 — Midnight between Sep 21 and Sep 22, Newtown, Weather by CustomWeather, © 2014

Note: Actual official high and low records may vary slightly from our data, if they occured in-between our weather recording intervals... More about our weather records

Advertising

Newtown weather history for previous 24 hours

 ConditionsComfort  
Time TempWeatherWind HumidityBarometerVisibility
12:00 AM
Sep 22
46 °FCool.5 mph91%30.37 "Hg15 mi
11:00 PM
Sep 21
47 °FCool.6 mph90%30.36 "Hg17 mi
10:00 PM47 °FCool.2 mph89%30.36 "Hg17 mi
9:00 PM51 °FCool.2 mph80%30.35 "Hg16 mi
8:00 PM53 °FCool.3 mph73%30.34 "Hg19 mi
7:00 PM55 °FCool.3 mph73%30.32 "Hg13 mi
6:00 PM58 °FCool.1 mph65%30.30 "Hg17 mi
5:00 PM59 °FCool.5 mph68%30.30 "Hg15 mi
4:00 PM58 °FRefreshingly cool.8 mph60%30.30 "Hg12 mi
3:00 PM60 °FRefreshingly cool.3 mph59%30.30 "Hg17 mi
2:00 PM58 °FCool.6 mph63%30.31 "Hg16 mi
1:00 PM59 °FCool.2 mph61%30.30 "Hg17 mi
12:00 PM58 °FCool.6 mph66%30.30 "Hg28 mi
11:00 AM58 °FCool.2 mph63%30.29 "Hg25 mi
10:00 AM56 °FCool.2 mph72%30.30 "Hg22 mi
9:00 AM52 °FCool.1 mph93%30.29 "Hg12 mi
8:00 AM47 °FCool.2 mph93%30.29 "Hg9 mi
7:00 AM44 °FQuite cool.3 mph98%30.28 "Hg4 mi
6:00 AM47 °FCool.6 mph94%30.26 "Hg9 mi
5:00 AM46 °FCool.5 mph97%30.26 "Hg9 mi
4:00 AM47 °FCool.3 mph97%30.25 "Hg9 mi
3:00 AM50 °FCool.5 mph89%30.24 "Hg11 mi
2:00 AM50 °FCool.2 mph91%30.23 "Hg11 mi
1:00 AM50 °FCool.2 mph97%30.22 "Hg9 mi
Weather by CustomWeather, © 2014

See weather overviewHow to use our weather pages